Change the Weather History Date:

Friday, May 3, 2013

  Actual Average Record
Temperature  
Mean Temperature 68 °F 58 °F  
Max Temperature 85 °F 69 °F 85 °F (2013)
Min Temperature 51 °F 46 °F 40 °F (2007)
Degree Days  
Heating Degree Days 0    
Month to date heating degree days 9  
Since 1 July heating degree days 2761  
Cooling Degree Days 3    
Month to date cooling degree days 6  
Year to date cooling degree days 6  
Growing Degree Days 18 (Base 50)    
Moisture  
Dew Point 43 °F    
Average Humidity 53    
Maximum Humidity 89    
Minimum Humidity 16    
Precipitation  
Precipitation 0.00 in - 1.12 in (2003)
Month to date precipitation 0.00  
Year to date precipitation 2.34  
Since 1 July precipitation 13.28  
Sea Level Pressure  
Sea Level Pressure 29.96 in    
Wind  
Wind Speed 4 mph (SSW)    
Max Wind Speed 12 mph    
Max Gust Speed 15 mph    
Visibility 10 miles    
Events      
T = Trace of Precipitation, MM = Missing Value Source: NWS Daily Summary

Daily Weather History Graph

Daily Weather History Graph

Search for Another Location

Airport or City:

Trip Planner

Search our weather history database for the weather conditions in past years. The results will help you decide how hot, cold, wet, or windy it might be!

Date:

Astronomy

May. 03, 2013 Rise Set
Actual Time 6:10 AM PDT 7:58 PM PDT
Civil Twilight 5:42 AM PDT 8:26 PM PDT
Nautical Twilight 5:08 AM PDT 9:00 PM PDT
Astronomical Twilight 4:32 AM PDT 9:36 PM PDT
Moon 2:28 AM PDT 2:06 PM PDT
Length of Visible Light 14h 43m
Length of Day
13h 47m
Waning Crescent, 36% of the Moon is Illuminated
May 3
Waning Crescent
May 9
New
May 17
First Quarter
May 24
Full
May 31
Last Quarter

Hourly Weather History & Observations

Time (PDT) Temp. Dew Point Humidity Pressure Visibility Wind Dir Wind Speed Gust Speed Precip Events Conditions
12:53 AM 57.0 °F 45.0 °F 64% 30.11 in 10.0 mi NW 5.8 mph - N/A   Clear
1:53 AM 55.9 °F 44.1 °F 64% 30.09 in 10.0 mi NW 3.5 mph - N/A   Clear
2:53 AM 55.0 °F 43.0 °F 64% 30.07 in 10.0 mi Calm Calm - N/A   Clear
3:53 AM 55.0 °F 42.1 °F 62% 30.05 in 10.0 mi WNW 5.8 mph - N/A   Clear
4:53 AM 54.0 °F 41.0 °F 62% 30.04 in 10.0 mi NW 4.6 mph - N/A   Clear
5:53 AM 53.1 °F 41.0 °F 64% 30.04 in 10.0 mi Calm Calm - N/A   Clear
6:53 AM 52.0 °F 42.1 °F 69% 30.04 in 10.0 mi Calm Calm - N/A   Clear
7:53 AM 61.0 °F 39.9 °F 46% 30.02 in 10.0 mi Calm Calm - N/A   Clear
8:53 AM 66.9 °F 41.0 °F 39% 30.01 in 10.0 mi Calm Calm - N/A   Clear
9:53 AM 75.0 °F 39.0 °F 27% 29.99 in 10.0 mi Calm Calm - N/A   Clear
10:53 AM 80.1 °F 32.0 °F 17% 29.98 in 10.0 mi Calm Calm - N/A   Clear
11:53 AM 84.0 °F 39.0 °F 20% 29.96 in 10.0 mi SSW 8.1 mph - N/A   Clear
12:53 PM 84.0 °F 33.1 °F 16% 29.94 in 10.0 mi WSW 8.1 mph - N/A   Clear
1:53 PM 81.0 °F 35.1 °F 19% 29.93 in 10.0 mi SSW 10.4 mph - N/A   Clear
2:53 PM 80.1 °F 37.9 °F 22% 29.91 in 10.0 mi South 9.2 mph - N/A   Clear
3:53 PM 75.0 °F 46.9 °F 37% 29.89 in 10.0 mi SSE 10.4 mph - N/A   Clear
4:53 PM 68.0 °F 50.0 °F 52% 29.88 in 10.0 mi SSE 9.2 mph - N/A   Clear
5:53 PM 64.0 °F 50.0 °F 60% 29.88 in 10.0 mi SSE 8.1 mph - N/A   Clear
6:53 PM 59.0 °F 50.0 °F 72% 29.87 in 10.0 mi SSE 6.9 mph - N/A   Clear
7:53 PM 55.0 °F 50.0 °F 83% 29.87 in 9.0 mi South 5.8 mph - N/A   Clear
8:53 PM 53.1 °F 50.0 °F 89% 29.88 in 9.0 mi South 4.6 mph - N/A   Clear
9:53 PM 53.1 °F 50.0 °F 89% 29.87 in 8.0 mi Calm Calm - N/A   Clear
10:53 PM 53.1 °F 48.9 °F 86% 29.86 in 9.0 mi Calm Calm - N/A   Clear
11:53 PM 52.0 °F 48.0 °F 86% 29.83 in 10.0 mi NNW 3.5 mph - N/A   Clear